This is the latest recevied weather packets stored in our database for station/object KC5TIL-3. If no packets are shown the sender has not sent any weather packets the latest 10 day(s).
| Time | Temp. | Humidity | Pressure | Rain* | Wind** | Luminosity | Snow |
|---|---|---|---|---|---|---|---|
| 1788114334 | 36.11° C | 13% | 1012.8 hPa | 0 mm | 1.79 m/s, 115° | - | - |
| 1788114032 | 35.56° C | 13% | 1012.8 hPa | 0 mm | 4.47 m/s, 129° | - | - |
| 1788113729 | 35.56° C | 13% | 1012.8 hPa | 0 mm | 2.68 m/s, 171° | - | - |
| 1788113423 | 35.56° C | 14% | 1012.8 hPa | 0 mm | 3.58 m/s, 209° | - | - |
| 1788113125 | 36.11° C | 13% | 1012.8 hPa | 0 mm | 3.13 m/s, 171° | - | - |
| 1788112826 | 35.56° C | 13% | 1013.8 hPa | 0 mm | 3.58 m/s, 215° | - | - |
| 1788112525 | 35.56° C | 13% | 1013.8 hPa | 0 mm | 3.13 m/s, 170° | - | - |
| 1788112227 | 35.56° C | 13% | 1013.8 hPa | 0 mm | 1.79 m/s, 84° | - | - |
| 1788111929 | 35.56° C | 13% | 1013.8 hPa | 0 mm | 4.47 m/s, 140° | - | - |
| 1788111627 | 35.56° C | 13% | 1013.8 hPa | 0 mm | 3.58 m/s, 143° | - | - |
| 1788111329 | 34.44° C | 14% | 1013.8 hPa | 0 mm | 3.13 m/s, 195° | - | - |
| 1788111031 | 35° C | 14% | 1013.8 hPa | 0 mm | 3.13 m/s, 139° | - | - |
| 1788110730 | 35° C | 14% | 1013.8 hPa | 0 mm | 4.02 m/s, 152° | - | - |
| 1788110431 | 34.44° C | 14% | 1013.8 hPa | 0 mm | 4.47 m/s, 211° | - | - |
| 1788110133 | 34.44° C | 14% | 1013.8 hPa | 0 mm | 3.13 m/s, 165° | - | - |
| 1788109832 | 34.44° C | 14% | 1013.8 hPa | 0 mm | 3.58 m/s, 129° | - | - |
| 1788109533 | 35° C | 14% | 1013.8 hPa | 0 mm | 2.24 m/s, 190° | - | - |
| 1788109235 | 34.44° C | 16% | 1013.8 hPa | 0 mm | 1.79 m/s, 215° | - | - |
| 1788108929 | 34.44° C | 16% | 1013.8 hPa | 0 mm | 2.24 m/s, 136° | - | - |
| 1788108630 | 34.44° C | 16% | 1013.8 hPa | 0 mm | 3.13 m/s, 124° | - | - |
| 1788108331 | 33.89° C | 17% | 1013.8 hPa | 0 mm | 3.13 m/s, 211° | - | - |
| 1788108030 | 34.44° C | 17% | 1013.8 hPa | 0 mm | 2.68 m/s, 183° | - | - |
| 1788107731 | 33.89° C | 17% | 1013.8 hPa | 0 mm | 3.58 m/s, 214° | - | - |
| 1788107432 | 33.89° C | 17% | 1014.8 hPa | 0 mm | 3.13 m/s, 205° | - | - |
| 1788107131 | 33.89° C | 17% | 1014.8 hPa | 0 mm | 2.68 m/s, 139° | - | - |
* Rain latest hour (hover to see other rain measurements)
** Current wind speed in m/s (hover to see current wind gust speed)